Regional Weather Roundup
Issued by NWS San Angelo, TX

Home | Current Version | Previous Version | Text Only | Print | Product List | Glossary On
Versions: 1 2 3 4 5 6 7 8 9 10 11 12 13 14 15 16 17 18 19 20 21 22 23 24 25 26 27 28 29 30 31 32 33 34 35 36 37 38 39 40 41 42 43 44 45 46 47 48 49 50
000
ASUS44 KSJT 292202
RWRSJT
WEST CENTRAL TEXAS REGIONAL WEATHER ROUNDUP
NATIONAL WEATHER SERVICE SAN ANGELO TX
500 PM CDT MON MAY 29 2017

NOTE: "FAIR" INDICATES FEW OR NO CLOUDS BELOW 12,000 FEET WITH NO
SIGNIFICANT WEATHER AND/OR OBSTRUCTIONS TO VISIBILITY.

TXZ049-054-064>066-071>073-076>078-098-099-113-114-127-128-139-140-
154-155-168>170-292300
...LOCATIONS ACROSS WEST CENTRAL TEXAS...

CITY           SKY/WX    TMP DP  RH WIND       PRES   REMARKS
SAN ANGELO     SUNNY     88  48  25 NE9       30.01F
ABILENE        SUNNY     84  48  28 CALM      30.04F
DYESS AFB      NOT AVBL
JUNCTION       CLOUDY    81  64  56 E9        30.01F
SWEETWATER     SUNNY     83  39  20 E6        30.08F
BROWNWOOD      SUNNY     84  55  37 NE6       30.02F
COLEMAN        CLEAR     85  49  28 NE10G17   30.03F
SONORA         MOSUNNY   82  59  44 CALM      30.04F
OZONA            N/A     88  50  27 E7        30.03F
BRADY          NOT AVBL
$$

TEXAS PANHANDLE/OKLAHOMA PANHANDLE

CITY           SKY/WX    TMP DP  RH WIND       PRES   REMARKS
AMARILLO       CLOUDY    80  37  21 SE13      30.11F
BORGER         CLOUDY    82  38  20 SE8       30.09F
CANADIAN       SUNNY     84  44  24 NE5       30.06F
DALHART        CLOUDY    79  37  22 SE12      30.11F
DUMAS          PTCLDY    79  39  23 S7        30.11F
GUYMON         NOT AVBL
HEREFORD       PTCLDY    83  35  17 SE10      30.10F
PAMPA          MOCLDY    83  41  22 E7        30.11F
PERRYTON       PTSUNNY   82  42  24 NE3       30.09F
$$

SOUTHERN PANHANDLE/SOUTH PLAINS/ROLLING PLAINS

CITY           SKY/WX    TMP DP  RH WIND       PRES   REMARKS
LUBBOCK        MOSUNNY   85  34  16 SE12G18   30.07F
SNYDER         SUNNY     84  43  23 E12       30.06F
CHILDRESS      SUNNY     87  35  15 SE8       30.05F
SEMINOLE       CLEAR     85  35  16 E9G23     30.08F
$$

PERMIAN BASIN

CITY           SKY/WX    TMP DP  RH WIND       PRES   REMARKS
MIDLAND        SUNNY     88  33  14 E15       30.03F
ODESSA         SUNNY     87  28  12 SE12G21   30.05F
WINK           SUNNY     89  35  14 E15G24    29.99F
$$

FAR WEST/SOUTHWEST MOUNTAINS/TRANS PECOS

CITY           SKY/WX    TMP DP  RH WIND       PRES   REMARKS
ALPINE         CLOUDY    82  50  33 E9G18     30.13F
DRYDEN           N/A     84  62  47 E12       29.97F
EL PASO        MOSUNNY   88  33  14 E10G21    29.97F
FORT STOCKTON  SUNNY     87  49  26 E10G23    30.01F
GUADALUPE PASS NOT AVBL
MARFA          CLOUDY    79  50  36 NE21      30.10F
PECOS          CLEAR     89  42  18 E15       29.99F
$$

DALLAS/FORT WORTH METROPLEX

CITY           SKY/WX    TMP DP  RH WIND       PRES   REMARKS
DFW AIRPORT    MOSUNNY   88  52  29 N9G17     29.99F
FTW MEACHAM    SUNNY     89  47  23 MISG      29.99F
DAL-EXECUTIVE  SUNNY     86  52  30 VRB5      30.00F
GRAND PRAIRIE  SUNNY     84  46  26 CALM      30.01F
ADDISON        SUNNY     86  52  30 E10       30.02F
MESQUITE       CLEAR     84  54  34 CALM      30.01F
LANCASTER      CLEAR     85  55  35 NE6       30.01F
$$

NORTH CENTRAL TEXAS

CITY           SKY/WX    TMP DP  RH WIND       PRES   REMARKS
SHRMAN/DENISON CLEAR     84  52  33 CALM      30.02F
GAINESVILLE    SUNNY     84  45  25 E3        30.04F
BRIDGEPORT     CLEAR     87  47  25 E6        30.03F
DENTON         SUNNY     86  51  29 N6        30.00F
WAXAHACHIE     CLEAR     86  54  33 NW5       30.01F
GRANBURY       CLEAR     88  45  21 NE5       30.01F
$$

WESTERN NORTH TEXAS

CITY           SKY/WX    TMP DP  RH WIND       PRES   REMARKS
WICHITA FALLS  SUNNY     86  44  23 E3        30.01F
VERNON         CLEAR     89  32  13 S9        30.03F
BRECKENRIDGE   CLEAR     89  38  16 NE8       30.01F
COMANCHE       SUNNY     83  55  37 NE7       30.04S
$$

CENTRAL AND SOUTH CENTRAL TEXAS

CITY           SKY/WX    TMP DP  RH WIND       PRES   REMARKS
AUSTIN/BERGSTM MOSUNNY   87  67  51 VRB3      29.97F
WACO           MOSUNNY   83  67  58 CALM      29.99F
HILLSBORO      CLOUDY    84  64  51 NE7       30.00F
TEMPLE         SUNNY     85  67  54 VRB3      30.00F
KILLEEN-GRAY   PTSUNNY   82  65  56 E5        29.99F
FORT HOOD      MOSUNNY   83  64  54 CALM      29.97F
GEORGETOWN     MOSUNNY   84  66  54 N8        29.99F
LAGO VISTA     FAIR      83  65  54 CALM      30.01F
SAN MARCOS       N/A    N/A N/A N/A MISG        N/A
NEW BRAUNFELS  MOSUNNY   87  66  49 E3        29.96F
RANDOLPH AFB   SUNNY     87  64  46 E3        29.97F
SAN ANTONIO    MOSUNNY   87  61  41 E5        29.98S
STINSON        SUNNY     87  63  44 S6        29.95S
PLEASANTON     NOT AVBL
LA GRANGE      CLOUDY    87  69  55 N7        29.96S
GIDDINGS       PTCLDY    83  65  54 N6        29.99F
$$

EAST TEXAS

CITY           SKY/WX    TMP DP  RH WIND       PRES   REMARKS
PARIS          SUNNY     84  55  37 NE6       30.02F
CLARKSVILLE    NOT AVBL
TYLER          CLOUDY    83  67  58 VRB3      30.00F
LONGVIEW       MOSUNNY  N/A N/A N/A CALM      29.99F
PALESTINE      CLOUDY    84  68  59 N3        30.00F
NACOGDOCHES    CLOUDY    81  70  69 N6        29.98F
$$

TEXAS HILL COUNTRY AND EDWARDS PLATEAU

CITY           SKY/WX    TMP DP  RH WIND       PRES   REMARKS
LLANO          NOT AVBL
HORSESHOE BAY  NOT AVBL
KERRVILLE      MOSUNNY   84  66  54 S5        30.01F
FREDERICKSBRG  NOT AVBL
ROCKSPRINGS      N/A    N/A N/A N/A MISG        N/A
HONDO          SUNNY     86  68  54 VRB5      29.97F
UVALDE         PTCLDY    83  70  64 CALM      29.98F
DEL RIO        MOSUNNY   86  67  52 SE15G23   29.93F
$$

SOUTHEAST TEXAS

CITY           SKY/WX    TMP DP  RH WIND       PRES   REMARKS
COLLEGE STN    PTSUNNY   84  68  58 N3        29.98F
CALDWELL       NOT AVBL
CROCKETT       NOT AVBL
BRENHAM        CLOUDY    85  67  55 N6        29.99S
HUNTSVILLE     CLOUDY    83  67  58 N5        29.99F
CONROE         CLOUDY    81  69  67 N5        30.00R
HOUSTON BUSH   CLOUDY    82  68  62 N3        29.99S
HOUSTON HOBBY  CLOUDY    82  69  64 VRB3      29.99S
PERLAND        CLOUDY    81  70  69 E9        30.00F
WHARTON        PTCLDY    79  67  66 NE5       30.00F
$$

THE UPPER TEXAS COAST

CITY           SKY/WX    TMP DP  RH WIND       PRES   REMARKS
ORANGE         MOCLDY    79  71  75 SE3       30.03R
PORT ARTHUR    CLOUDY    77  69  76 E5        30.01R
GALVESTON      CLOUDY    81  71  71 N9        30.00S
ANGLETON       PTSUNNY   83  71  67 NE7       29.98F
BAY CITY       MOCLDY    82  71  69 NE5       29.98S
$$

TEXAS COASTAL BEND, RIO GRANDE PLAINS DEEP SOUTH TEXAS

CITY           SKY/WX    TMP DP  RH WIND       PRES   REMARKS
VICTORIA       CLOUDY    84  70  62 NE12      29.97R
BEEVILLE       FAIR      87  68  52 N7        29.94S
ROCKPORT       PTSUNNY   83  68  60 E15       29.95R
PORT ARANSAS   PTCLDY    81  68  65 E13G18    29.96R
PORT LAVACA    MOCLDY    82  74  75 CALM      29.97S
CORPUS CHRISTI CLOUDY    85  70  60 NE10      29.94R
KINGSVILLE NAS CLOUDY    85  72  65 NE3       29.94R
COTULLA        SUNNY     91  65  41 CALM      29.93F
LAREDO         SUNNY     87  67  51 CALM      29.94F
BROWNSVILLE    CLOUDY    86  71  60 E7        29.96R
PORT ISABEL    CLOUDY    83  71  67 E14       29.95R
HEBBRONVILLE   CLOUDY    86  63  45 CALM      29.95F
MCALLEN        PTSUNNY   89  69  51 SE9       29.94R
WESLACO        PTSUNNY   84  69  58 E6        29.94S
FALFURRIAS     MOCLDY    86  67  53 CALM      29.93S
EDINBURG       MOCLDY    91  65  42 E7        29.95R
$$




USA.gov is the U.S. government's official web portal to all federal, state and local government web resources and services.